Current weather by "City, St" or "zip code"  
 
Advertise Here

Current Conditions: Mount Airy/Surry County Airport, NC

Fair


78.0 F

Last Updated on Aug 4 2020, 4:55 pm EDT
Humidity: 77%
Wind Speed: SE 4.6 mph
Barometer 29.97 in
Dewpoint: 69.6 F
Visibility: 10.00 mi
Precip: --
Heat Index: NA
Wind Chill: NA
Current conditions at:

Mount Airy/Surry County Airport, NC (KMWK)

Lat: 36.45675 Lon: 80.55483

Local Radar Image active severe weather and emergency alerts image image weather storm and storm spotter reports image weather observation monitoring service image
Local
Radar
Active
Alerts
Storm Reports Obs
Monitoring

Sign-up For Email & Text Message Weather Alert Notification Services


Advertise Here

Observation History for Mount Airy/Surry County Airport, NC


Time Wind
(mph)
Vis
(mi)
Weather Precip (in) Temperature (F) Relative
Humidity
Wind
Chill
(F)
Heat
Index
(F)
Pressure
Air Dwpt altimeter
(in)
sea level
(mb)
Rmks
4:55 pm EDT SE 4.6 10.00 Fair -- 78.0 69.6 77% NA NA 29.97 M
3:35 pm EDT W 4.6 10.00 Fair -- 84.0 70.7 64% NA 89 29.97 M
2:15 pm EDT S 8.1 10.00 Fair -- 84.0 72.0 66% NA 89 29.98 M
1:35 pm EDT SW 5.8 10.00 Partly Cloudy -- 83.0 71.4 69% NA 88 29.99 M
12:55 pm EDT SW 6.9 10.00 Partly Cloudy -- 83.0 72.0 70% NA 88 29.99 M
10:55 am EDT N 0.0 10.00 Fair -- 79.0 71.2 78% NA NA 29.98 M
9:55 am EDT S 4.6 10.00 Fair -- 76.0 69.8 82% NA NA 29.98 M
8:35 am EDT N 0.0 10.00 Fair -- 73.0 68.7 88% NA NA 29.96 M
5:55 am EDT N 0.0 10.00 Partly Cloudy -- 68.0 65.7 92% NA NA 29.91 M
4:35 am EDT N 0.0 10.00 Mostly Cloudy -- 69.0 66.4 92% NA NA 29.90 M
3:35 am EDT N 0.0 10.00 Partly Cloudy -- 69.0 66.7 92% NA NA 29.89 M
2:55 am EDT N 0.0 10.00 Mostly Cloudy -- 70.0 67.3 92% NA NA 29.92 M
1:35 am EDT N 3.5 10.00 Overcast -- 71.0 68.0 90% NA NA 29.96 M
12:55 am EDT NE 4.6 10.00 Mostly Cloudy -- 71.0 67.8 91% NA NA 29.97 M
11:55 pm EDT N 3.5 10.00 Overcast -- 71.0 68.0 91% NA NA 30.00 M
10:55 pm EDT NE 5.8 10.00 Fair -- 71.0 68.0 91% NA NA 30.01 M
9:55 pm EDT E 8.1 10.00 Mostly Cloudy -- 71.0 68.4 91% NA NA 30.02 M
8:55 pm EDT NE 3.5 10.00 Mostly Cloudy -- 71.0 68.9 92% NA NA 30.02 M
7:55 pm EDT E 5.8 10.00 Fair -- 73.0 69.3 90% NA NA 30.02 M
6:55 pm EDT N 0.0 10.00 Light Rain -- 73.0 69.6 90% NA NA 30.02 M

Regional Weather Observation


Mount Airy/Surry County Airport, NC (KMWK)

Fair
78.0 F

Martinsville, VA (KMTV)

Partly Cloudy
74.0 F

Winston Salem, Smith Reynolds Airport, NC (KINT)

Partly Cloudy
84.0 F

North Wilkesboro, Wilkes County Airport, NC (KUKF)

Thunderstorm
86.0 F

Marion / Wytheville, VA (KMKJ)

Fair
77.0 F

Jefferson - Ashe County Airport, NC (KGEV)

Mostly Cloudy
73.0 F